Location: Banksville Park
(38.5557°N, 75.1182°W)
Time: 03:56:17
(UTC+00:00)

Cosmos 1743 - Pass Details

Date: 19 September 2020
Orbit: 510 x 527 km, 82.6° (Epoch: 18 October)

Event Time Altitude Azimuth Distance (km) Brightness Sun altitude
Rises 09:56:22 0° 359° (N) 2,627 6.4 -10.5°
Reaches altitude 10° 09:58:34 10° 5° (N) 1,736 5.6 -10.0°
Maximum altitude 10:02:14 46° 80° (E) 693 3.9 -9.3°
Drops below altitude 10° 10:05:53 10° 155° (SSE) 1,725 5.6 -8.6°
Sets 10:08:03 0° 161° (SSE) 2,607 6.4 -8.2°
